Location: Maiden
(35.5760°N, 81.2120°W)
Time: 03:43:43
(UTC-04:00)

Vanguard 2 - Pass Details

Date: 08 August 2020
Orbit: 553 x 2937 km, 32.9° (Epoch: 20 September)

Event Time Altitude Azimuth Distance (km) Brightness Sun altitude
Rises 19:16:16 0° 206° (SSW) 6,633 12.5 11.9°
Reaches altitude 10° 19:21:30 10° 197° (SSW) 5,730 12.1 10.9°
Maximum altitude 19:35:36 30° 145° (SE) 4,158 10.9 8.1°
Drops below altitude 10° 19:47:46 10° 92° (E) 4,978 11.1 5.7°
Sets 19:51:49 0° 82° (E) 5,677 11.4 4.9°
